La Crosse, WI

11:48 AM CST on December 14, 2017 (GMT -0600)
La Crosse Municipal

Weather History for KLSE - October, 2011

Change the Weather History Date:

Thursday, October 20, 2011

  Actual Average Record
Temperature  
Mean Temperature 45 °F 49 °F  
Max Temperature 56 °F 58 °F 84 °F (1872)
Min Temperature 34 °F 39 °F 19 °F (1952)
Degree Days  
Heating Degree Days 20 16  
Month to date heating degree days 154 262  
Since 1 July heating degree days 342 422  
Cooling Degree Days 0 0  
Month to date cooling degree days 20 7  
Year to date cooling degree days 922 781  
Moisture  
Dew Point 32 °F    
Average Humidity 57    
Maximum Humidity 79    
Minimum Humidity 35    
Precipitation  
Precipitation 0.00 in 0.06 in 1.10 in (1979)
Month to date precipitation 1.30 1.48  
Year to date precipitation 32.45 29.00  
Snow  
Snow 0.00 in 0.10 in 0.20 in (1982)
Month to date snowfall 0.0 0.1  
Since 1 July snowfall 0.0 0.1  
Snow Depth 0.00 in    
Sea Level Pressure  
Sea Level Pressure 29.87 in    
Wind  
Wind Speed 13 mph (NNW)    
Max Wind Speed 24 mph    
Max Gust Speed 32 mph    
Visibility 10 miles    
Events      
T = Trace of Precipitation, MM = Missing Value Source: NWS Daily Summary

Daily Weather History Graph

Daily Weather History Graph

Search for Another Location

Airport or City:

Trip Planner

Search our weather history database for the weather conditions in past years. The results will help you decide how hot, cold, wet, or windy it might be!

Date:

Astronomy

Oct. 20, 2011 Rise Set
Actual Time 7:25 AM CDT 6:13 PM CDT
Civil Twilight 6:56 AM CDT 6:42 PM CDT
Nautical Twilight 6:22 AM CDT 7:16 PM CDT
Astronomical Twilight 5:49 AM CDT 7:49 PM CDT
Moon No Moon Rise 2:35 PM CDT (10/20)
Length of Visible Light 11h 46m
Length of Day
10h 48m
Last Quarter, 44% of the Moon is Illuminated
Oct 20
Last Quarter
Oct 26
New
Nov 2
First Quarter
Nov 10
Full
Nov 18
Last Quarter

Hourly Weather History & Observations

Time (CDT) Temp. Windchill Dew Point Humidity Pressure Visibility Wind Dir Wind Speed Gust Speed Precip Events Conditions
12:53 AM 39.9 °F 33.9 °F 34.0 °F 79% 29.92 in 10.0 mi NNW 9.2 mph - N/A   Clear
1:53 AM 39.9 °F 32.9 °F 34.0 °F 79% 29.91 in 10.0 mi NNW 11.5 mph - N/A   Partly Cloudy
2:53 AM 39.9 °F 32.5 °F 33.1 °F 77% 29.89 in 10.0 mi NNW 12.7 mph - N/A   Mostly Cloudy
3:53 AM 39.9 °F 31.8 °F 34.0 °F 79% 29.85 in 10.0 mi NNW 15.0 mph - N/A   Overcast
4:53 AM 41.0 °F 32.8 °F 34.0 °F 76% 29.85 in 10.0 mi NNW 16.1 mph - N/A   Overcast
5:53 AM 42.1 °F 35.2 °F 34.0 °F 73% 29.86 in 10.0 mi NNW 12.7 mph - N/A   Overcast
6:53 AM 42.1 °F 34.9 °F 34.0 °F 73% 29.84 in 10.0 mi NNW 13.8 mph 23.0 mph N/A   Overcast
7:05 AM 42.8 °F 34.5 °F 33.8 °F 70% 29.82 in 10.0 mi NNW 18.4 mph 23.0 mph N/A   Mostly Cloudy
7:53 AM 42.1 °F 34.5 °F 34.0 °F 73% 29.84 in 10.0 mi NNW 15.0 mph 25.3 mph N/A   Mostly Cloudy
8:53 AM 43.0 °F 35.4 °F 33.1 °F 68% 29.85 in 10.0 mi North 16.1 mph 23.0 mph N/A   Overcast
9:16 AM 44.6 °F 36.6 °F 32.0 °F 61% 29.83 in 10.0 mi NNW 19.6 mph 28.8 mph N/A   Overcast
9:23 AM 44.6 °F 36.6 °F 32.0 °F 61% 29.84 in 10.0 mi North 19.6 mph 27.6 mph N/A   Overcast
9:53 AM 46.0 °F 38.3 °F 30.9 °F 56% 29.84 in 10.0 mi North 20.7 mph 31.1 mph N/A   Overcast
10:53 AM 48.0 °F - 30.9 °F 52% 29.84 in 10.0 mi North 19.6 mph 28.8 mph N/A   Clear
11:53 AM 50.0 °F - 32.0 °F 50% 29.83 in 10.0 mi NNW 20.7 mph 26.5 mph N/A   Clear
12:53 PM 52.0 °F - 30.9 °F 45% 29.82 in 10.0 mi NNW 18.4 mph 29.9 mph N/A   Clear
1:53 PM 54.0 °F - 30.9 °F 41% 29.81 in 10.0 mi NNW 17.3 mph 26.5 mph N/A   Clear
2:53 PM 55.4 °F - 30.2 °F 38% 29.81 in 10.0 mi NW 16.1 mph 24.2 mph N/A   Clear
3:53 PM 55.0 °F - 28.9 °F 37% 29.83 in 10.0 mi NNW 18.4 mph 26.5 mph N/A   Clear
4:53 PM 52.0 °F - 30.9 °F 45% 29.84 in 10.0 mi NNW 17.3 mph 25.3 mph N/A   Clear
5:53 PM 50.0 °F - 30.0 °F 46% 29.87 in 10.0 mi NNW 16.1 mph 21.9 mph N/A   Clear
6:53 PM 46.0 °F 41.9 °F 30.0 °F 54% 29.91 in 10.0 mi NNW 8.1 mph - N/A   Clear
7:53 PM 43.0 °F 39.5 °F 30.0 °F 60% 29.93 in 10.0 mi NNW 5.8 mph - N/A   Clear
8:53 PM 42.1 °F - 30.0 °F 62% 29.93 in 10.0 mi Calm Calm - N/A   Clear
9:53 PM 41.0 °F 38.0 °F 28.0 °F 60% 29.95 in 10.0 mi North 4.6 mph - N/A   Clear
10:53 PM 39.9 °F 36.7 °F 28.0 °F 63% 29.96 in 10.0 mi NNW 4.6 mph - N/A   Clear
11:53 PM 37.0 °F - 28.9 °F 73% 29.98 in 10.0 mi Calm Calm - N/A   Clear